sat.trackr.live / text

‹ back to catalog

STARLINK-34757

NORAD 64850 · 2025-152J

PAYLOAD ACTIVE UNKNOWN

§ Identity

Operator
Country
US
Launch date
2025-07-19
Launch site
AFWTR
Launch vehicle
Mass (kg)
RCS (m²)

Purposes: comms

External: N2YO · Heavens-Above · Gunter

§ Orbital elements

Epoch: 2026-05-25T02:20:27.768768Z

Period
95.64 min
Inclination
97.4520°
Eccentricity
0.0001654
Mean motion
15.05658874 rev/d
Perigee alt
548.3 km
Apogee alt
550.6 km
Semi-major
6,927.6 km
B*
2.6542e-4
RAAN
0.4270°
Arg perigee
81.6474°
Mean anomaly
278.4941°
Rev number
4,691

§ Raw data

STARLINK-347571 64850U 25152J   26145.09754362  .00003774  00000+0  26542-3 0  99942 64850  97.4520   0.4270 0001654  81.6474 278.4941 15.05658874 46915

JSON: /api/v1/satellites/64850 · /tle

For live sub-satellite position, see the globe view (requires WebGL).

§ Visibility from observer

Set your observer location to see the next 7 days of passes ≥ 10°. The values pass through the URL so the page stays shareable.

No JS? Fill the form by hand. The geolocation button needs JavaScript.